TimeAKST,TemperatureF,Dew PointF,Humidity,Sea Level PressureIn,VisibilityMPH,Wind Direction,Wind SpeedMPH,Gust SpeedMPH,PrecipitationIn,Events,Conditions,WindDirDegrees,DateUTC
12:03 AM,32.0,27.0,82,30.18,10.0,NW,4.6,-,N/A,,Overcast,320,2014-02-21 09:03:00
12:23 AM,32.0,27.0,82,30.19,10.0,WNW,5.8,-,N/A,,Overcast,300,2014-02-21 09:23:00
12:53 AM,30.9,26.1,82,30.20,10.0,NW,5.8,-,N/A,,Overcast,320,2014-02-21 09:53:00
1:53 AM,30.0,26.1,85,30.22,10.0,WNW,4.6,-,N/A,,Scattered Clouds,300,2014-02-21 10:53:00
2:53 AM,28.9,25.0,85,30.24,10.0,Calm,Calm,-,N/A,,Partly Cloudy,0,2014-02-21 11:53:00
3:53 AM,26.1,23.0,88,30.25,10.0,Calm,Calm,-,N/A,,Clear,0,2014-02-21 12:53:00
4:53 AM,25.0,25.0,100,30.26,10.0,Calm,Calm,-,N/A,,Clear,0,2014-02-21 13:53:00
5:53 AM,25.0,25.0,100,30.27,10.0,Calm,Calm,-,N/A,,Clear,0,2014-02-21 14:53:00
6:53 AM,25.0,25.0,100,30.27,10.0,Calm,Calm,-,N/A,,Clear,0,2014-02-21 15:53:00
7:53 AM,26.1,26.1,100,30.28,10.0,Calm,Calm,-,N/A,,Clear,0,2014-02-21 16:53:00
8:53 AM,28.9,27.0,92,30.29,10.0,Calm,Calm,-,N/A,,Mostly Cloudy,0,2014-02-21 17:53:00
9:53 AM,30.9,28.0,89,30.30,10.0,Calm,Calm,-,N/A,,Overcast,0,2014-02-21 18:53:00
10:53 AM,33.1,26.1,75,30.30,10.0,SE,5.8,-,N/A,,Overcast,130,2014-02-21 19:53:00
11:53 AM,34.0,26.1,73,30.29,10.0,ESE,6.9,-,N/A,,Mostly Cloudy,110,2014-02-21 20:53:00
12:53 PM,34.0,24.1,67,30.29,10.0,SE,6.9,-,N/A,,Overcast,140,2014-02-21 21:53:00
1:53 PM,34.0,25.0,70,30.27,10.0,ESE,5.8,-,N/A,,Overcast,120,2014-02-21 22:53:00
2:53 PM,33.1,25.0,72,30.27,8.0,ESE,6.9,-,0.00,Snow,Light Snow,120,2014-02-21 23:53:00
3:24 PM,33.1,28.0,82,30.26,10.0,South,3.5,-,0.00,,Overcast,180,2014-02-22 00:24:00
3:31 PM,33.1,28.0,82,30.25,10.0,Calm,Calm,-,0.00,,Overcast,0,2014-02-22 00:31:00
3:53 PM,32.0,28.9,88,30.26,3.0,SE,4.6,-,0.00,Snow,Light Snow,140,2014-02-22 00:53:00
4:01 PM,32.0,28.9,88,30.25,3.0,Calm,Calm,-,0.00,Snow,Light Snow,0,2014-02-22 01:01:00
4:29 PM,32.0,30.0,92,30.25,8.0,SE,6.9,-,0.00,Snow,Light Snow,130,2014-02-22 01:29:00
4:50 PM,30.2,30.2,100,30.25,2.5,SE,3.5,-,0.00,Snow,Light Snow,130,2014-02-22 01:50:00
4:53 PM,30.9,30.9,100,30.26,2.0,ESE,5.8,-,0.00,Snow,Light Snow,120,2014-02-22 01:53:00
5:53 PM,30.0,30.0,100,30.25,10.0,Calm,Calm,-,0.01,,Overcast,0,2014-02-22 02:53:00
6:53 PM,30.9,30.0,96,30.24,9.0,ESE,4.6,-,0.00,,Overcast,120,2014-02-22 03:53:00
7:33 PM,30.9,30.9,100,30.23,6.0,ESE,4.6,-,0.00,Snow,Light Snow,120,2014-02-22 04:33:00
7:40 PM,30.0,30.0,100,30.23,7.0,SE,5.8,-,0.00,Snow,Light Snow,130,2014-02-22 04:40:00
7:53 PM,30.0,30.0,100,30.23,8.0,ESE,4.6,-,0.00,Snow,Light Snow,120,2014-02-22 04:53:00
8:53 PM,30.0,30.0,100,30.22,10.0,Calm,Calm,-,0.00,,Overcast,0,2014-02-22 05:53:00
9:53 PM,28.9,28.9,100,30.22,9.0,Calm,Calm,-,0.00,Snow,Light Snow,0,2014-02-22 06:53:00
10:53 PM,30.0,30.0,100,30.22,10.0,Calm,Calm,-,0.00,,Overcast,0,2014-02-22 07:53:00
11:53 PM,30.9,28.0,89,30.22,10.0,Calm,Calm,-,N/A,,Overcast,0,2014-02-22 08:53:00